| time (UTC) | temp F | wind direction | speed knots | gust knots | rain 1hr in | rain 24hr in | rain mn in | humidity % | barometer mb |
| 20260507155048 | 56 | 52 | 0.9 | 4.3 | 0.00 | 0.86 | 0.28 | 61 | 1001.1 |
| 20260507152858 | 55 | 294 | 0.9 | 4.3 | 0.00 | 0.88 | 0.28 | 62 | 1001.2 |
| 20260507151359 | 55 | 320 | 1.7 | 7.0 | 0.00 | 0.90 | 0.28 | 65 | 1001.6 |
| 20260507145858 | 53 | 107 | 1.7 | 4.3 | 0.00 | 0.92 | 0.28 | 68 | 1001.6 |
| 20260507144358 | 53 | 24 | 0.9 | 4.3 | 0.00 | 0.94 | 0.28 | 72 | 1001.6 |
| 20260507142858 | 52 | 234 | 0.9 | 5.2 | 0.00 | 0.97 | 0.28 | 73 | 1001.6 |
| 20260507141356 | 52 | 283 | 0.9 | 5.2 | 0.00 | 0.99 | 0.28 | 74 | 1001.7 |
| 20260507135851 | 51 | 301 | 0.9 | 7.8 | 0.00 | 1.01 | 0.28 | 76 | 1001.9 |
| 20260507135051 | 51 | 257 | 2.6 | 6.1 | 0.00 | 1.03 | 0.28 | 78 | 1002.3 |
| 20260507132852 | 50 | 5 | 1.7 | 5.2 | 0.00 | 1.05 | 0.28 | 77 | 1002.4 |
| 20260507131354 | 49 | 281 | 1.7 | 7.8 | 0.00 | 1.08 | 0.28 | 81 | 1002.3 |
| 20260507125852 | 49 | 5 | 0.9 | 3.5 | 0.00 | 1.11 | 0.28 | 84 | 1002.1 |
| 20260507124352 | 47 | 12 | 0.9 | 4.3 | 0.00 | 1.12 | 0.28 | 87 | 1002.7 |
| 20260507122854 | 45 | 256 | 0.0 | 4.3 | 0.00 | 1.12 | 0.28 | 89 | 1002.3 |
| 20260507121352 | 45 | 282 | 0.9 | 5.2 | 0.00 | 1.12 | 0.28 | 90 | 1002.7 |
| 20260507115852 | 45 | 336 | 0.9 | 5.2 | 0.00 | 1.12 | 0.28 | 92 | 1002.3 |
| 20260507114352 | 44 | 50 | 0.9 | 4.3 | 0.00 | 1.12 | 0.28 | 93 | 1002.3 |
| 20260507112854 | 44 | 281 | 0.9 | 3.5 | 0.00 | 1.12 | 0.28 | 93 | 1002.6 |
| 20260507111354 | 44 | 313 | 0.0 | 6.1 | 0.00 | 1.12 | 0.28 | 93 | 1002.3 |
| 20260507105854 | 43 | 265 | 0.9 | 4.3 | 0.00 | 1.12 | 0.28 | 94 | 1002.5 |
| 20260507104352 | 43 | 289 | 0.0 | 3.5 | 0.00 | 1.12 | 0.28 | 94 | 1002.5 |
| 20260507102851 | 42 | 317 | 0.0 | 1.7 | 0.00 | 1.12 | 0.28 | 94 | 1002.6 |
| 20260507101351 | 42 | 318 | 0.0 | 0.9 | 0.00 | 1.12 | 0.28 | 94 | 1002.6 |
| 20260507095853 | 42 | 321 | 0.0 | 0.0 | 0.00 | 1.12 | 0.28 | 94 | 1002.4 |
| 20260507095055 | 42 | 321 | 0.0 | 0.0 | 0.00 | 1.12 | 0.28 | 94 | 1002.4 |
| 20260507092852 | 42 | 321 | 0.0 | 2.6 | 0.00 | 1.12 | 0.28 | 94 | 1002.4 |
| 20260507091352 | 42 | 311 | 0.0 | 2.6 | 0.00 | 1.12 | 0.28 | 94 | 1002.4 |
| 20260507085851 | 42 | 355 | 0.0 | 0.0 | 0.00 | 1.13 | 0.28 | 95 | 1002.3 |
| 20260507084352 | 43 | 355 | 0.0 | 2.6 | 0.00 | 1.13 | 0.28 | 95 | 1002.1 |
| 20260507082851 | 43 | 351 | 0.0 | 2.6 | 0.00 | 1.13 | 0.28 | 95 | 1002.0 |
| 20260507081352 | 43 | 351 | 0.0 | 1.7 | 0.01 | 1.14 | 0.28 | 95 | 1002.1 |
| 20260507075852 | 43 | 355 | 0.9 | 3.5 | 0.02 | 1.14 | 0.28 | 95 | 1002.2 |
| 20260507074350 | 43 | 338 | 0.0 | 0.9 | 0.04 | 1.15 | 0.28 | 95 | 1002.3 |
| 20260507072847 | 44 | 338 | 0.0 | 1.7 | 0.07 | 1.15 | 0.28 | 95 | 1002.2 |
| 20260507071347 | 44 | 331 | 0.0 | 1.7 | 0.10 | 1.15 | 0.27 | 95 | 1002.2 |
| 20260507065848 | 44 | 325 | 0.0 | 0.9 | 0.12 | 1.14 | 0.26 | 95 | 1002.3 |
| 20260507064348 | 44 | 324 | 0.0 | 1.7 | 0.10 | 1.13 | 0.24 | 95 | 1002.3 |
| 20260507062848 | 44 | 323 | 0.0 | 0.9 | 0.07 | 1.10 | 0.21 | 95 | 1002.2 |
| 20260507061348 | 44 | 327 | 0.0 | 0.0 | 0.04 | 1.06 | 0.17 | 95 | 1002.3 |
| 20260507060543 | 44 | 328 | 0.0 | 0.0 | 0.03 | 1.03 | 0.15 | 95 | 1002.3 |
| 20260507054348 | 44 | 355 | 0.0 | 0.0 | 0.06 | 1.03 | 0.14 | 95 | 1002.4 |
| 20260507052848 | 44 | 355 | 0.0 | 0.0 | 0.08 | 1.03 | 0.14 | 95 | 1002.6 |
| 20260507051348 | 44 | 355 | 0.0 | 0.0 | 0.10 | 1.03 | 0.13 | 95 | 1002.9 |
| 20260507050545 | 45 | 355 | 0.0 | 1.7 | 0.11 | 1.02 | 0.11 | 94 | 1003.1 |
| 20260507044347 | 45 | 355 | 0.0 | 2.6 | 0.09 | 0.99 | 0.08 | 94 | 1003.1 |
| 20260507042848 | 45 | 349 | 0.0 | 0.9 | 0.07 | 0.97 | 0.06 | 94 | 1003.2 |
| 20260507041349 | 45 | 349 | 0.0 | 3.5 | 0.04 | 0.94 | 0.03 | 94 | 1003.6 |
| 20260507035846 | 46 | 5 | 0.9 | 4.3 | 0.01 | 0.91 | 0.91 | 94 | 1003.7 |
| 20260507034346 | 46 | 355 | 0.9 | 5.2 | 0.01 | 0.91 | 0.90 | 95 | 1003.5 |
| 20260507032846 | 46 | 347 | 0.0 | 3.5 | 0.01 | 0.95 | 0.90 | 95 | 1003.3 |
| 20260507031342 | 46 | 306 | 0.0 | 3.5 | 0.02 | 0.97 | 0.90 | 95 | 1003.3 |
| 20260507025843 | 46 | 346 | 0.0 | 0.9 | 0.02 | 0.97 | 0.90 | 95 | 1003.4 |
| 20260507024342 | 46 | 346 | 0.0 | 0.9 | 0.01 | 0.96 | 0.89 | 95 | 1003.3 |
| 20260507022841 | 46 | 346 | 0.0 | 0.0 | 0.02 | 0.96 | 0.89 | 95 | 1003.9 |
| 20260507021342 | 46 | 346 | 0.0 | 1.7 | 0.01 | 0.95 | 0.88 | 95 | 1004.1 |
| 20260507015842 | 46 | 346 | 0.0 | 2.6 | 0.02 | 0.95 | 0.88 | 95 | 1004.3 |
| 20260507012844 | 46 | 347 | 0.0 | 0.0 | 0.03 | 0.94 | 0.87 | 95 | 1004.7 |
| 20260507011342 | 47 | 347 | 0.0 | 0.0 | 0.05 | 0.94 | 0.87 | 95 | 1004.7 |
| 20260507005842 | 47 | 347 | 0.0 | 0.0 | 0.05 | 0.93 | 0.86 | 95 | 1004.8 |
| 20260507004342 | 47 | 347 | 0.0 | 0.0 | 0.05 | 0.92 | 0.85 | 95 | 1004.9 |
| 20260507002842 | 47 | 347 | 0.0 | 0.0 | 0.04 | 0.91 | 0.84 | 95 | 1004.9 |
| 20260507001342 | 47 | 347 | 0.0 | 1.7 | 0.03 | 0.89 | 0.82 | 95 | 1005.0 |
| 20260507000542 | 47 | 347 | 0.0 | 0.9 | 0.02 | 0.88 | 0.81 | 94 | 1004.9 |
| 20260506234343 | 47 | 347 | 0.0 | 0.0 | 0.01 | 0.87 | 0.80 | 95 | 1004.9 |
| 20260506232842 | 48 | 347 | 0.0 | 0.9 | 0.01 | 0.87 | 0.80 | 94 | 1005.0 |
| 20260506231343 | 48 | 347 | 0.0 | 0.9 | 0.00 | 0.86 | 0.79 | 94 | 1004.8 |
| 20260506225844 | 48 | 348 | 0.0 | 2.6 | 0.01 | 0.86 | 0.79 | 94 | 1004.7 |
| 20260506224343 | 48 | 348 | 0.0 | 2.6 | 0.02 | 0.86 | 0.79 | 94 | 1004.9 |
| 20260506222842 | 48 | 350 | 0.0 | 2.6 | 0.03 | 0.86 | 0.79 | 94 | 1004.9 |
| 20260506221342 | 48 | 0 | 0.0 | 0.9 | 0.04 | 0.85 | 0.78 | 94 | 1005.0 |
| 20260506215838 | 48 | 0 | 0.0 | 0.0 | 0.05 | 0.85 | 0.78 | 94 | 1005.0 |
| 20260506214337 | 48 | 0 | 0.0 | 0.0 | 0.06 | 0.84 | 0.77 | 94 | 1005.2 |
| 20260506213534 | 48 | 0 | 0.0 | 0.0 | 0.06 | 0.83 | 0.76 | 93 | 1005.4 |
| 20260506211336 | 48 | 0 | 0.0 | 0.9 | 0.05 | 0.81 | 0.74 | 93 | 1005.6 |
| 20260506205836 | 48 | 0 | 0.0 | 2.6 | 0.06 | 0.80 | 0.73 | 93 | 1005.9 |
| 20260506204334 | 48 | 10 | 0.0 | 0.9 | 0.06 | 0.82 | 0.71 | 93 | 1005.6 |
| 20260506202835 | 48 | 331 | 0.0 | 0.0 | 0.06 | 0.86 | 0.70 | 93 | 1005.6 |
| 20260506201333 | 48 | 331 | 0.0 | 0.9 | 0.07 | 0.88 | 0.69 | 94 | 1005.7 |
| 20260506195832 | 48 | 331 | 0.0 | 2.6 | 0.07 | 0.88 | 0.67 | 94 | 1005.9 |
| 20260506194332 | 48 | 330 | 0.0 | 1.7 | 0.07 | 0.86 | 0.65 | 93 | 1006.1 |
| 20260506192833 | 48 | 331 | 0.0 | 0.0 | 0.08 | 0.85 | 0.64 | 93 | 1005.8 |
| 20260506191334 | 48 | 331 | 0.0 | 0.9 | 0.08 | 0.83 | 0.62 | 93 | 1006.3 |
| 20260506185832 | 48 | 331 | 0.0 | 0.9 | 0.08 | 0.81 | 0.60 | 92 | 1006.0 |
| 20260506184331 | 48 | 330 | 0.0 | 0.0 | 0.08 | 0.79 | 0.58 | 92 | 1006.6 |
| 20260506182833 | 48 | 330 | 0.0 | 0.0 | 0.08 | 0.77 | 0.56 | 92 | 1006.8 |
| 20260506181332 | 48 | 330 | 0.0 | 0.0 | 0.08 | 0.75 | 0.55 | 93 | 1007.2 |
| 20260506175832 | 48 | 330 | 0.0 | 0.0 | 0.09 | 0.73 | 0.52 | 93 | 1007.3 |
| 20260506174333 | 48 | 330 | 0.0 | 0.9 | 0.09 | 0.71 | 0.50 | 92 | 1007.4 |
| 20260506172833 | 48 | 330 | 0.0 | 0.0 | 0.08 | 0.68 | 0.48 | 93 | 1007.3 |
| 20260506171324 | 47 | 320 | 0.0 | 0.9 | 0.10 | 0.67 | 0.46 | 92 | 1007.5 |
| 20260506165824 | 47 | 320 | 0.0 | 0.9 | 0.08 | 0.64 | 0.43 | 92 | 1008.2 |
| 20260506164324 | 47 | 319 | 0.0 | 0.9 | 0.08 | 0.62 | 0.41 | 92 | 1008.1 |
| 20260506162824 | 47 | 319 | 0.0 | 2.6 | 0.08 | 0.60 | 0.39 | 91 | 1008.4 |
| 20260506161322 | 48 | 267 | 0.0 | 0.0 | 0.07 | 0.57 | 0.36 | 92 | 1008.4 |
| 20260506155822 | 48 | 267 | 0.0 | 3.5 | 0.08 | 0.56 | 0.35 | 91 | 1008.1 |